• In Hungary
  • List of Countries
  • For 7 days
  • Water Temperature
  • Satellite Maps
  • Weather Map
  • News
  • Weather Widgets
  • user-avatar
    Login

    Hourly Weather Puerto Limón

    Today, 17 December, Sunday

    Time Temperature Precipitation Wind Pressure Humidity
    00:00 +24°C° 0.1 mm 3 mps 758 mmHg 81%
    01:00 +24°C° 0 mm 3 mps 758 mmHg 82%
    02:00 +24°C° 0 mm 3 mps 757 mmHg 83%
    03:00 +24°C° 0 mm 2 mps 757 mmHg 84%
    04:00 +24°C° 0.1 mm 2 mps 758 mmHg 83%
    05:00 +24°C° 0.1 mm 2 mps 758 mmHg 83%
    06:00 +24°C° 0.1 mm 2 mps 758 mmHg 82%
    07:00 +26°C° 0 mm 2 mps 758 mmHg 73%
    08:00 +29°C° 0 mm 2 mps 759 mmHg 64%
    09:00 +31°C° 0 mm 2 mps 759 mmHg 55%
    10:00 +32°C° 0 mm 2 mps 759 mmHg 54%
    11:00 +34°C° 0 mm 2 mps 758 mmHg 53%
    12:00 +35°C° 0 mm 2 mps 758 mmHg 51%
    13:00 +34°C° 0.1 mm 2 mps 757 mmHg 58%
    14:00 +32°C° 0.1 mm 2 mps 757 mmHg 64%
    15:00 +31°C° 0.1 mm 2 mps 756 mmHg 71%
    16:00 +29°C° 0.3 mm 2 mps 756 mmHg 76%
    17:00 +28°C° 0.3 mm 2 mps 756 mmHg 81%
    18:00 +26°C° 0.3 mm 1 mps 757 mmHg 86%
    19:00 +26°C° 0.3 mm 2 mps 757 mmHg 86%
    20:00 +25°C° 0.3 mm 2 mps 757 mmHg 86%
    21:00 +25°C° 0.3 mm 3 mps 758 mmHg 87%
    22:00 +25°C° 0.3 mm 3 mps 758 mmHg 86%
    23:00 +25°C° 0.3 mm 3 mps 758 mmHg 85%

    Tomorrow, 18 December, Monday

    Time Temperature Precipitation Wind Pressure Humidity
    00:00 +25°C° 0.3 mm 3 mps 758 mmHg 84%
    01:00 +26°C° 0.1 mm 2 mps 757 mmHg 84%
    02:00 +26°C° 0.1 mm 2 mps 757 mmHg 84%
    03:00 +26°C° 0.1 mm 2 mps 757 mmHg 84%
    04:00 +26°C° 0.1 mm 2 mps 757 mmHg 85%
    05:00 +26°C° 0.1 mm 2 mps 757 mmHg 85%
    06:00 +25°C° 0.1 mm 2 mps 757 mmHg 85%
    07:00 +26°C° 0.3 mm 2 mps 758 mmHg 84%
    08:00 +27°C° 0.3 mm 2 mps 759 mmHg 82%
    09:00 +28°C° 0.3 mm 2 mps 759 mmHg 81%
    10:00 +29°C° 0.2 mm 3 mps 759 mmHg 76%
    11:00 +30°C° 0.2 mm 3 mps 758 mmHg 71%
    12:00 +33°C° 0.2 mm 3 mps 758 mmHg 66%
    13:00 +32°C° 0.2 mm 2 mps 758 mmHg 65%
    14:00 +31°C° 0.2 mm 2 mps 757 mmHg 65%
    15:00 +31°C° 0.2 mm 2 mps 756 mmHg 64%
    16:00 +29°C° 0.2 mm 2 mps 757 mmHg 72%
    17:00 +27°C° 0.2 mm 1 mps 757 mmHg 79%
    18:00 +26°C° 0.2 mm 1 mps 757 mmHg 87%
    19:00 +25°C° 0.3 mm 2 mps 758 mmHg 85%
    20:00 +25°C° 0.3 mm 2 mps 759 mmHg 82%
    21:00 +25°C° 0.3 mm 2 mps 759 mmHg 80%
    22:00 +25°C° 0.6 mm 2 mps 759 mmHg 81%
    23:00 +25°C° 0.6 mm 2 mps 759 mmHg 82%

    Day after tomorrow, 19 December, Tuesday

    Time Temperature Precipitation Wind Pressure Humidity
    00:00 +25°C° 0.6 mm 2 mps 759 mmHg 83%
    01:00 +25°C° 0.4 mm 2 mps 758 mmHg 85%
    02:00 +25°C° 0.4 mm 3 mps 758 mmHg 86%
    03:00 +25°C° 0.4 mm 3 mps 757 mmHg 88%
    04:00 +25°C° 0 mm 3 mps 758 mmHg 88%
    05:00 +25°C° 0 mm 3 mps 758 mmHg 88%
    06:00 +25°C° 0 mm 3 mps 758 mmHg 88%
    07:00 +27°C° 0 mm 2 mps 759 mmHg 78%
    08:00 +29°C° 0 mm 2 mps 759 mmHg 69%
    09:00 +32°C° 0 mm 2 mps 759 mmHg 59%
    10:00 +32°C° 0 mm 2 mps 759 mmHg 57%
    11:00 +34°C° 0 mm 2 mps 758 mmHg 56%
    12:00 +34°C° 0 mm 1 mps 758 mmHg 54%
    13:00 +34°C° 0.1 mm 2 mps 757 mmHg 57%
    14:00 +32°C° 0.1 mm 2 mps 756 mmHg 60%
    15:00 +32°C° 0.1 mm 2 mps 756 mmHg 63%
    16:00 +30°C° 0.3 mm 2 mps 756 mmHg 71%
    17:00 +28°C° 0.3 mm 2 mps 757 mmHg 80%
    18:00 +26°C° 0.3 mm 2 mps 757 mmHg 88%
    19:00 +26°C° 0.7 mm 2 mps 757 mmHg 85%
    20:00 +26°C° 0.7 mm 2 mps 758 mmHg 81%
    21:00 +26°C° 0.7 mm 2 mps 759 mmHg 78%
    22:00 +26°C° 0.9 mm 2 mps 758 mmHg 80%
    23:00 +26°C° 0.9 mm 2 mps 758 mmHg 81%

    20 December, Wednesday

    Time Temperature Precipitation Wind Pressure Humidity
    00:00 +26°C° 0.9 mm 2 mps 758 mmHg 83%
    01:00 +26°C° 0.8 mm 2 mps 758 mmHg 84%
    02:00 +26°C° 0.8 mm 2 mps 757 mmHg 86%
    03:00 +26°C° 0.8 mm 2 mps 757 mmHg 87%
    04:00 +26°C° 0.4 mm 2 mps 757 mmHg 87%
    05:00 +25°C° 0.4 mm 2 mps 757 mmHg 88%
    06:00 +25°C° 0.4 mm 2 mps 758 mmHg 88%
    07:00 +28°C° 0.2 mm 2 mps 758 mmHg 81%
    08:00 +30°C° 0.2 mm 1 mps 758 mmHg 73%
    09:00 +32°C° 0.2 mm 1 mps 759 mmHg 66%
    10:00 +32°C° 0.3 mm 1 mps 758 mmHg 66%
    11:00 +32°C° 0.3 mm 2 mps 757 mmHg 66%
    12:00 +32°C° 0.3 mm 2 mps 757 mmHg 66%
    13:00 +32°C° 0.8 mm 2 mps 756 mmHg 69%
    14:00 +31°C° 0.8 mm 2 mps 756 mmHg 72%
    15:00 +31°C° 0.8 mm 2 mps 755 mmHg 74%
    16:00 +29°C° 1.1 mm 2 mps 756 mmHg 79%
    17:00 +28°C° 1.1 mm 2 mps 756 mmHg 84%
    18:00 +27°C° 1.1 mm 2 mps 756 mmHg 88%
    19:00 +26°C° 1.4 mm 2 mps 757 mmHg 87%
    20:00 +26°C° 1.4 mm 2 mps 757 mmHg 86%
    21:00 +26°C° 1.4 mm 2 mps 758 mmHg 85%
    22:00 +26°C° 0.8 mm 2 mps 757 mmHg 86%
    23:00 +26°C° 0.8 mm 2 mps 757 mmHg 86%

    21 December, Thursday

    Time Temperature Precipitation Wind Pressure Humidity
    00:00 +25°C° 0.8 mm 2 mps 757 mmHg 87%
    01:00 +25°C° 1 mm 2 mps 756 mmHg 87%
    02:00 +25°C° 1 mm 2 mps 756 mmHg 87%
    03:00 +25°C° 1 mm 2 mps 756 mmHg 87%
    04:00 +25°C° 0.9 mm 2 mps 756 mmHg 87%
    05:00 +25°C° 0.9 mm 2 mps 757 mmHg 87%
    06:00 +25°C° 0.9 mm 2 mps 757 mmHg 87%
    07:00 +27°C° 0.5 mm 2 mps 758 mmHg 82%
    08:00 +29°C° 0.5 mm 2 mps 758 mmHg 77%
    09:00 +30°C° 0.5 mm 2 mps 759 mmHg 72%
    10:00 +31°C° 0.5 mm 2 mps 758 mmHg 70%
    11:00 +31°C° 0.5 mm 2 mps 758 mmHg 68%
    12:00 +32°C° 0.5 mm 1 mps 757 mmHg 66%
    13:00 +32°C° 0.1 mm 1 mps 756 mmHg 65%
    14:00 +32°C° 0.1 mm 1 mps 756 mmHg 64%
    15:00 +31°C° 0.1 mm 1 mps 755 mmHg 64%
    16:00 +29°C° 0 mm 1 mps 756 mmHg 70%
    17:00 +28°C° 0 mm 1 mps 756 mmHg 76%
    18:00 +26°C° 0 mm 1 mps 757 mmHg 83%
    19:00 +25°C° 0.1 mm 2 mps 757 mmHg 80%
    20:00 +25°C° 0.1 mm 2 mps 758 mmHg 77%
    21:00 +25°C° 0.1 mm 2 mps 758 mmHg 74%
    22:00 +25°C° 0.2 mm 2 mps 758 mmHg 75%
    23:00 +25°C° 0.2 mm 2 mps 758 mmHg 77%

    22 December, Friday

    Time Temperature Precipitation Wind Pressure Humidity
    00:00 +24°C° 0.2 mm 2 mps 757 mmHg 79%
    01:00 +25°C° 0.2 mm 2 mps 757 mmHg 79%
    02:00 +25°C° 0.2 mm 2 mps 757 mmHg 80%
    03:00 +25°C° 0.2 mm 2 mps 757 mmHg 81%
    04:00 +25°C° 0.1 mm 2 mps 757 mmHg 82%
    05:00 +25°C° 0.1 mm 2 mps 757 mmHg 84%
    06:00 +25°C° 0.1 mm 2 mps 758 mmHg 85%
    07:00 +27°C° 0 mm 2 mps 758 mmHg 75%
    08:00 +30°C° 0 mm 2 mps 758 mmHg 65%
    09:00 +32°C° 0 mm 2 mps 759 mmHg 56%
    10:00 +32°C° 0 mm 1 mps 758 mmHg 54%
    11:00 +33°C° 0 mm 1 mps 758 mmHg 52%
    12:00 +34°C° 0 mm 1 mps 757 mmHg 50%
    13:00 +34°C° 0 mm 2 mps 757 mmHg 54%
    14:00 +32°C° 0 mm 2 mps 756 mmHg 57%
    15:00 +32°C° 0 mm 2 mps 756 mmHg 60%
    16:00 +30°C° 0.2 mm 2 mps 756 mmHg 68%
    17:00 +28°C° 0.2 mm 1 mps 757 mmHg 76%
    18:00 +26°C° 0.2 mm 1 mps 757 mmHg 84%
    19:00 +26°C° 0.1 mm 1 mps 758 mmHg 82%
    20:00 +25°C° 0.1 mm 1 mps 758 mmHg 80%
    21:00 +25°C° 0.1 mm 2 mps 759 mmHg 78%
    22:00 +25°C° 0.2 mm 2 mps 758 mmHg 78%
    23:00 +25°C° 0.2 mm 2 mps 758 mmHg 78%
    Show more